Regional Weather Roundup
Issued by NWS

Home | Current Version | Previous Version | Graphics & Text | Print | Product List | Glossary On
Versions: 1 2 3 4 5 6 7 8 9 10 11 12 13 14 15 16 17 18 19 20 21 22 23 24 25 26 27 28 29 30 31 32 33 34 35 36 37 38 39 40 41 42 43 44 45 46 47 48 49 50
623
ASUS45 KCYS 252310
RWRWY

WYOMING REGIONAL WEATHER ROUNDUP
NATIONAL WEATHER SERVICE CHEYENNE WY
500 PM MDT THU MAY 25 2017

NOTE:  "FAIR" INDICATES FEW OR NO CLOUDS BELOW 12,000 FEET
WITH NO SIGNIFICANT WEATHER AND/OR OBSTRUCTIONS TO VISIBILITY.

WYZ001-260000-
YELLOWSTONE NATIONAL PARK

CITY           SKY/WX    TMP DP  RH WIND       PRES   REMARKS
LK YELLOWSTONE   N/A     43  24  47 MISG      29.88R
W YELLOWSTONE  NOT AVBL

$$
WYZ002>013-054>058-071-098>099-260000-
NORTHERN WYOMING

CITY           SKY/WX    TMP DP  RH WIND       PRES   REMARKS
JACKSON        MOSUNNY   54  18  24 CALM      29.79S
CODY           FAIR      56  28  34 N15       29.78R
GREYBULL       FAIR      60  30  32 N16G28    29.73R
WORLAND        FAIR      61  34  36 N17       29.73S
SHERIDAN       FAIR      58  35  42 NW25G35   29.74R
BUFFALO        PTSUNNY   53  35  50 N28G38    29.75R
GILLETTE       PTSUNNY   55  39  54 NW25G32   29.73R
HULETT         CLOUDY    55  36  47 W12G22    29.71R
NEWCASTLE      FAIR      63  30  29 NW16G25   29.68R

$$
WYZ014>020-022>026-101>103-260000-
CENTRAL WYOMING

CITY           SKY/WX    TMP DP  RH WIND       PRES   REMARKS
BIG PINEY      FAIR      56  19  23 W15       29.79R
PINEDALE       CLOUDY    52  19  28 NW8G21    29.79S
DUBOIS         NOT AVBL
LANDER         FAIR      61  26  26 N14       29.70R
RIVERTON       FAIR      60  28  29 NE21G29   29.72R
CASPER         FAIR      61  31  32 N23G31    29.71R
DOUGLAS        FAIR      65  27  23 NW23G29   29.69R

$$
WYZ021-027>030-104>119-260000-
SOUTHERN WYOMING

CITY           SKY/WX    TMP DP  RH WIND       PRES   REMARKS
EVANSTON       FAIR      56  24  29 W17       29.82S
KEMMERER         N/A     54  19  26 W14G26    29.81
FORT BRIDGER   FAIR      62  21  21 W20G28    29.82
ROCK SPRINGS   PTSUNNY   59  23  25 W22G28    29.77R
RAWLINS        PTSUNNY   60  25  26 W17G25    29.75R
SARATOGA       MOCLDY    55  34  44 W12G24    29.78
LARAMIE        FAIR      50  42  74 NW18      29.77R
CHEYENNE       LGT RAIN  54  48  80 S9        29.75R
TORRINGTON     FAIR      70  41  34 N16G25    29.61R
PINE BLUFFS    CLOUDY    55  48  76 N12       29.70R

$$




USA.gov is the U.S. government's official web portal to all federal, state and local government web resources and services.